Weather History for EGXG - October, 2012

Change the Weather History Date:

Saturday, October 27, 2012

  Actual Average Record
Temperature  
Mean Temperature 39 °F -  
Max Temperature 46 °F - - ()
Min Temperature 32 °F - - ()
Degree Days  
Heating Degree Days 26    
Moisture  
Dew Point 35 °F    
Average Humidity 86    
Maximum Humidity 100    
Minimum Humidity 75    
Precipitation  
Precipitation 0.01 in - - ()
Sea Level Pressure  
Sea Level Pressure 30.09 in    
Wind  
Wind Speed 14 mph ()    
Max Wind Speed 22 mph    
Max Gust Speed -    
Visibility 6.5 miles    
Events Rain , Snow    
T = Trace of Precipitation, MM = Missing Value Source: Averaged Metar Reports

Daily Weather History Graph

Daily Weather History Graph

Search for Another Location

Airport or City:

Trip Planner

Search our weather history database for the weather conditions in past years. The results will help you decide how hot, cold, wet, or windy it might be!

Date:

Astronomy

Oct. 27, 2012 Rise Set
Actual Time 7:55 AM BST 5:40 PM BST
Civil Twilight 7:19 AM BST 6:17 PM BST
Nautical Twilight 6:37 AM BST 6:58 PM BST
Astronomical Twilight 5:56 AM BST 7:39 PM BST
Moon 4:30 PM BST (10/27) 5:21 AM BST (10/27)
Length of Visible Light 10h 58m
Length of Day
9h 44m
Waxing Gibbous, 95% of the Moon is Illuminated
Oct 27
Waxing Gibbous
Oct 29
Full
Nov 7
Last Quarter
Nov 13
New
Nov 20
First Quarter

Hourly Weather History & Observations

Time (BST) Temp. Windchill Dew Point Humidity Pressure Visibility Wind Dir Wind Speed Gust Speed Precip Events Conditions
12:50 AM 34 °F - 32 °F 91% 30.02 in 2 mi NNW 17.3 mph - - Snow Snow
12:50 AM 33.8 °F 23.2 °F 32.0 °F 93% 30.01 in - NNW 17.3 mph - N/A Snow Snow
1:50 AM 33.8 °F 22.8 °F 32.0 °F 93% 30.01 in 6.2 mi NNW 18.4 mph - N/A   Mostly Cloudy
2:50 AM 33.8 °F 22.5 °F 33.8 °F 100% 30.01 in 5.6 mi NNW 19.6 mph - N/A Snow Light Snow Showers
3:50 AM 34 °F - 33 °F 93% 30.04 in - NNW 13.8 mph - - Snow Snow
3:50 AM 33.8 °F 24.3 °F 32.0 °F 93% 30.04 in - NNW 13.8 mph - N/A   Partly Cloudy
4:50 AM 33.8 °F 23.9 °F 32.0 °F 93% 30.04 in 6.2 mi NNW 15.0 mph - N/A   Partly Cloudy
5:50 AM 35.6 °F 26.2 °F 33.8 °F 93% 30.04 in 6.2 mi NNW 15.0 mph - N/A   Unknown
6:50 AM 36 °F - 33 °F 86% 30.06 in 37 mi North 17.3 mph - -  
6:50 AM 35.6 °F 25.5 °F 33.8 °F 93% 30.04 in 6.2 mi North 17.3 mph - N/A   Partly Cloudy
7:50 AM 37.4 °F 27.8 °F 33.8 °F 87% 30.06 in 6.2 mi NNW 17.3 mph - N/A   Unknown
8:50 AM 37.4 °F 27.5 °F 33.8 °F 87% 30.06 in 6.2 mi NNW 18.4 mph - N/A   Partly Cloudy
9:50 AM 38 °F - 36 °F 87% 30.11 in 31 mi NNW 18.4 mph - - Rain Rain
9:50 AM 37.4 °F 27.5 °F 35.6 °F 93% 30.09 in 6.2 mi NNW 18.4 mph - N/A   Partly Cloudy
10:50 AM 41.0 °F 32.2 °F 37.4 °F 87% 30.12 in 6.2 mi NNW 18.4 mph - N/A Rain Light Rain Showers
11:50 AM 42.8 °F 34.5 °F 39.2 °F 87% 30.12 in 6.2 mi NNW 18.4 mph - N/A   Unknown
12:50 PM 44.6 °F 36.4 °F 39.2 °F 81% 30.12 in 6.2 mi NNW 20.7 mph - N/A   Partly Cloudy
1:50 PM 46.4 °F 38.5 °F 41.0 °F 81% 30.12 in 6.2 mi North 21.9 mph - N/A   Partly Cloudy
2:50 PM 46.4 °F 39.5 °F 41.0 °F 81% 30.12 in 6.2 mi NNW 17.3 mph - N/A   Partly Cloudy
3:50 PM 46 °F - 41 °F 75% 30.15 in 22 mi North 16.1 mph - -   Scattered Clouds
3:50 PM 46.4 °F 39.8 °F 41.0 °F 81% 30.12 in 6.2 mi North 16.1 mph - N/A   Scattered Clouds
4:50 PM 44.6 °F 37.8 °F 39.2 °F 81% 30.12 in 6.2 mi NNW 15.0 mph - N/A   Partly Cloudy
5:50 PM 42.8 °F 38.0 °F 37.4 °F 81% 30.15 in 6.2 mi NW 8.1 mph - N/A   Partly Cloudy
6:50 PM 40 °F - 35 °F 77% 30.17 in 22 mi WNW 8.1 mph - -  
6:50 PM 41.0 °F 35.8 °F 35.6 °F 81% 30.15 in 6.2 mi WNW 8.1 mph - N/A   Unknown
7:50 PM 39.2 °F 33.0 °F 35.6 °F 87% 30.15 in 6.2 mi NW 9.2 mph - N/A   Mostly Cloudy
8:50 PM 39.2 °F 34.2 °F 33.8 °F 81% 30.15 in 6.2 mi West 6.9 mph - N/A   Mostly Cloudy
9:50 PM 38 °F - 34 °F 80% 30.14 in 18 mi WSW 4.6 mph - -   Mostly Cloudy
9:50 PM 37.4 °F 33.8 °F 33.8 °F 87% 30.12 in 6.2 mi WSW 4.6 mph - N/A   Mostly Cloudy
10:50 PM 39.2 °F 34.2 °F 33.8 °F 81% 30.09 in 6.2 mi West 6.9 mph - N/A   Mostly Cloudy
11:50 PM 39.2 °F 33.6 °F 35.6 °F 87% 30.09 in 6.2 mi SSW 8.1 mph - N/A   Mostly Cloudy